Location: Bj�rn�ya
(74.5000°N, 19.0000°E)
Time: 03:00:07
(UTC+02:00)

Envisat - Pass Details

Date: 07 February 2022
Orbit: 764 x 765 km, 98.2° (Epoch: 21 May)

Event Time Altitude Azimuth Distance (km) Brightness Sun altitude
Rises 06:01:47 0° 30° (NNE) 3,247 6.6 -14.5°
Reaches altitude 10° 06:04:06 10° 31° (NNE) 2,319 5.8 -14.3°
Maximum altitude 06:09:14 84° 119° (ESE) 781 3.1 -14.0°
Drops below altitude 10° 06:14:21 10° 209° (SSW) 2,311 5.3 -13.7°
Sets 06:16:39 0° 211° (SSW) 3,236 6.0 -13.5°
